TimeCDT,TemperatureF,Dew PointF,Humidity,Sea Level PressureIn,VisibilityMPH,Wind Direction,Wind SpeedMPH,Gust SpeedMPH,PrecipitationIn,Events,Conditions,WindDirDegrees,DateUTC
12:15 AM,32.5,25.0,74,30.16,10.0,ESE,8.1,-,N/A,,Clear,120,2013-03-28 05:15:00
12:35 AM,33.3,25.9,74,30.17,10.0,SE,6.9,-,N/A,,Clear,130,2013-03-28 05:35:00
12:55 AM,32.0,25.5,77,30.17,10.0,SE,6.9,-,N/A,,Clear,130,2013-03-28 05:55:00
1:15 AM,33.3,25.7,74,30.17,10.0,SE,9.2,-,N/A,,Clear,130,2013-03-28 06:15:00
1:35 AM,33.8,26.2,74,30.17,10.0,SSE,4.6,-,N/A,,Clear,160,2013-03-28 06:35:00
1:55 AM,33.8,26.6,75,30.17,10.0,South,4.6,-,N/A,,Clear,170,2013-03-28 06:55:00
2:15 AM,34.2,27.1,75,30.18,10.0,SSE,6.9,-,N/A,,Clear,160,2013-03-28 07:15:00
2:35 AM,32.2,27.3,82,30.17,10.0,SSE,6.9,-,N/A,,Clear,150,2013-03-28 07:35:00
2:55 AM,32.0,26.4,80,30.17,10.0,SSE,6.9,-,N/A,,Clear,150,2013-03-28 07:55:00
3:15 AM,32.2,27.3,82,30.17,10.0,SSE,4.6,-,N/A,,Clear,150,2013-03-28 08:15:00
3:35 AM,32.0,27.7,84,30.16,10.0,SSE,5.8,-,N/A,,Clear,160,2013-03-28 08:35:00
3:55 AM,32.0,27.9,85,30.16,10.0,South,4.6,-,N/A,,Clear,180,2013-03-28 08:55:00
4:35 AM,32.4,28.4,85,30.16,10.0,South,5.8,-,N/A,,Clear,190,2013-03-28 09:35:00
4:55 AM,32.9,28.9,85,30.16,10.0,South,5.8,-,N/A,,Clear,180,2013-03-28 09:55:00
5:15 AM,30.7,27.3,87,30.15,10.0,South,5.8,-,N/A,,Clear,180,2013-03-28 10:15:00
5:35 AM,30.9,27.7,88,30.15,10.0,South,4.6,-,N/A,,Clear,170,2013-03-28 10:35:00
5:55 AM,31.3,28.0,88,30.14,10.0,South,5.8,-,N/A,,Clear,170,2013-03-28 10:55:00
6:15 AM,31.1,27.7,87,30.13,10.0,South,5.8,-,N/A,,Clear,180,2013-03-28 11:15:00
6:35 AM,30.7,27.3,87,30.13,10.0,South,3.5,-,N/A,,Clear,170,2013-03-28 11:35:00
6:55 AM,29.8,27.1,90,30.13,10.0,SSW,3.5,-,N/A,,Clear,200,2013-03-28 11:55:00
7:15 AM,30.6,27.9,90,30.14,10.0,SSW,4.6,-,N/A,,Clear,210,2013-03-28 12:15:00
7:35 AM,30.9,28.4,90,30.15,7.0,Calm,Calm,-,N/A,,Scattered Clouds,0,2013-03-28 12:35:00
7:55 AM,28.9,26.1,89,30.14,5.0,Calm,Calm,-,N/A,,Clear,0,2013-03-28 12:55:00
8:15 AM,30.9,28.0,89,30.15,7.0,WNW,3.5,-,N/A,,Clear,300,2013-03-28 13:15:00
8:35 AM,32.4,30.0,91,30.16,7.0,Calm,Calm,-,N/A,,Clear,0,2013-03-28 13:35:00
8:55 AM,35.4,31.8,87,30.16,10.0,Calm,Calm,-,N/A,,Clear,0,2013-03-28 13:55:00
9:15 AM,38.3,33.1,81,30.16,10.0,Calm,Calm,-,N/A,,Clear,0,2013-03-28 14:15:00
9:35 AM,41.9,35.2,77,30.16,10.0,Calm,Calm,-,N/A,,Clear,0,2013-03-28 14:35:00
9:55 AM,44.6,34.9,69,30.16,10.0,ESE,4.6,-,N/A,,Clear,120,2013-03-28 14:55:00
10:15 AM,46.9,34.2,61,30.17,10.0,SSE,5.8,-,N/A,,Clear,160,2013-03-28 15:15:00
10:35 AM,50.0,33.4,53,30.18,10.0,South,8.1,-,N/A,,Clear,180,2013-03-28 15:35:00
10:55 AM,51.1,33.1,50,30.17,10.0,South,9.2,-,N/A,,Clear,170,2013-03-28 15:55:00
11:15 AM,52.2,32.2,47,30.16,10.0,South,9.2,-,N/A,,Scattered Clouds,170,2013-03-28 16:15:00
11:35 AM,54.0,32.0,43,30.16,10.0,SSE,11.5,17.3,N/A,,Clear,150,2013-03-28 16:35:00
11:55 AM,54.5,31.1,41,30.16,10.0,SSE,10.4,-,N/A,,Clear,160,2013-03-28 16:55:00
12:15 PM,55.0,30.4,39,30.16,10.0,SSE,9.2,-,N/A,,Clear,150,2013-03-28 17:15:00
12:35 PM,57.0,29.8,36,30.16,10.0,SSE,13.8,-,N/A,,Clear,160,2013-03-28 17:35:00
12:55 PM,58.3,28.4,32,30.14,10.0,SE,12.7,-,N/A,,Scattered Clouds,140,2013-03-28 17:55:00
1:15 PM,59.2,26.1,28,30.14,10.0,SE,12.7,18.4,N/A,,Clear,140,2013-03-28 18:15:00
1:35 PM,59.5,25.3,27,30.13,10.0,SSE,13.8,17.3,N/A,,Clear,160,2013-03-28 18:35:00
1:55 PM,61.0,21.4,22,30.13,10.0,SE,12.7,17.3,N/A,,Clear,130,2013-03-28 18:55:00
2:15 PM,61.2,21.7,22,30.12,10.0,SE,12.7,17.3,N/A,,Scattered Clouds,140,2013-03-28 19:15:00
2:35 PM,62.1,22.8,22,30.11,10.0,ESE,11.5,-,N/A,,Scattered Clouds,120,2013-03-28 19:35:00
2:55 PM,62.4,24.4,24,30.10,10.0,SSE,11.5,21.9,N/A,,Clear,150,2013-03-28 19:55:00
3:15 PM,62.6,24.1,23,30.10,10.0,SSE,9.2,18.4,N/A,,Clear,150,2013-03-28 20:15:00
3:35 PM,62.8,22.6,22,30.10,10.0,South,10.4,-,N/A,,Clear,180,2013-03-28 20:35:00
3:55 PM,62.6,23.7,23,30.09,10.0,SE,8.1,16.1,N/A,,Clear,140,2013-03-28 20:55:00
4:15 PM,63.3,25.2,23,30.09,10.0,South,8.1,11.5,N/A,,Clear,180,2013-03-28 21:15:00
4:35 PM,63.3,25.7,24,30.09,10.0,SSE,9.2,16.1,N/A,,Clear,160,2013-03-28 21:35:00
4:55 PM,63.7,24.4,22,30.09,10.0,South,6.9,16.1,N/A,,Clear,170,2013-03-28 21:55:00
5:15 PM,63.3,26.4,25,30.08,10.0,SSE,8.1,-,N/A,,Clear,160,2013-03-28 22:15:00
5:35 PM,63.3,26.8,25,30.08,10.0,South,10.4,-,N/A,,Clear,190,2013-03-28 22:35:00
5:55 PM,63.5,28.0,26,30.08,10.0,SSE,9.2,-,N/A,,Clear,160,2013-03-28 22:55:00
6:15 PM,63.1,27.7,26,30.08,10.0,South,8.1,-,N/A,,Clear,190,2013-03-28 23:15:00
6:35 PM,62.6,27.3,26,30.08,10.0,SE,9.2,-,N/A,,Clear,140,2013-03-28 23:35:00
6:55 PM,62.2,27.1,26,30.09,10.0,South,8.1,-,N/A,,Clear,170,2013-03-28 23:55:00
7:15 PM,61.7,27.5,27,30.09,10.0,SE,6.9,-,N/A,,Clear,140,2013-03-29 00:15:00
7:35 PM,59.0,27.9,31,30.09,10.0,SE,9.2,-,N/A,,Clear,140,2013-03-29 00:35:00
7:55 PM,55.8,28.0,35,30.10,10.0,SE,9.2,-,N/A,,Scattered Clouds,130,2013-03-29 00:55:00
8:15 PM,52.2,27.9,39,30.10,10.0,SE,10.4,-,N/A,,Clear,130,2013-03-29 01:15:00
8:35 PM,49.3,28.0,44,30.11,10.0,SE,11.5,-,N/A,,Clear,130,2013-03-29 01:35:00
8:55 PM,49.5,27.9,43,30.11,10.0,SE,10.4,-,N/A,,Clear,130,2013-03-29 01:55:00
9:15 PM,45.3,27.7,50,30.12,10.0,SE,10.4,-,N/A,,Clear,130,2013-03-29 02:15:00
9:35 PM,44.8,28.2,52,30.13,10.0,SE,10.4,-,N/A,,Clear,130,2013-03-29 02:35:00
9:55 PM,45.0,28.8,53,30.13,10.0,SE,9.2,-,N/A,,Clear,130,2013-03-29 02:55:00
10:15 PM,43.0,29.1,58,30.14,10.0,SE,10.4,-,N/A,,Clear,130,2013-03-29 03:15:00
10:35 PM,45.5,28.8,52,30.14,10.0,SE,10.4,-,N/A,,Clear,140,2013-03-29 03:35:00
10:55 PM,41.7,28.9,61,30.14,10.0,SE,8.1,-,N/A,,Clear,130,2013-03-29 03:55:00
11:15 PM,41.2,28.4,60,30.14,10.0,ESE,6.9,-,N/A,,Clear,110,2013-03-29 04:15:00
11:35 PM,40.3,28.4,63,30.14,10.0,SE,9.2,-,N/A,,Clear,140,2013-03-29 04:35:00
11:55 PM,38.8,27.3,63,30.14,10.0,SE,5.8,-,N/A,,Clear,140,2013-03-29 04:55:00